SES-10

Last updated on Tue Jun 17 2025 00:02:47 GMT+0000 (Coordinated Universal Time)

1 42432U 17017A 25167.18169868 -.00000261 00000+0 00000+0 0 9997 2 42432 0.0112 7.7672 0002774 87.1021 168.3518 1.00269250 30076
UTC large
Height (km)
Speed (km/s)
/
Latitude / Longitude
Inclination (degrees)
Orbital Period (minutes)
Azimuth
Elevation
Range (km)
Doppler Factor

Next 0 passes for location: London (51.5072 / 0.1276)

Sorry there are no passes over London.